This demonstration page uses our WeatherBlox Daily Observations layout. Learn more.

Left ArrowRight Arrow

Hourly Observations for May 28, 2018

Temp ( °F °C ) Dew Point ( °F °C ) Humidity (%) Winds ( mph kmh ) Pressure ( in mb ) Visibility ( mi km ) Precip ( " mm )
12:53 am 00:53 Clear 76 24.4 56 13.3 50 50 SSE 10 17 29.85 1011 10 16 0.00 0.00
1:53 am 01:53 Clear 73 22.8 59 15 62 62 S 6 9 29.87 1012 10 16 0.00 0.00
2:53 am 02:53 Clear 69 20.6 60 15.6 73 73 Calm 29.88 1012 10 16 0.00 0.00
3:53 am 03:53 Clear 69 20.6 60 15.6 73 73 NNE 5 7 29.88 1012 10 16 0.00 0.00
4:53 am 04:53 Clear 69 20.6 60 15.6 73 73 E 3 6 29.87 1011 10 16 0.00 0.00
5:53 am 05:53 Clear 65 18.3 60 15.6 84 84 Calm 29.89 1012 10 16 0.00 0.00
6:53 am 06:53 Sunny 67 19.4 60 15.6 79 79 ENE 3 6 29.92 1013 10 16 0.00 0.00
7:53 am 07:53 Sunny 72 22.2 61 16.1 68 68 E 6 9 29.91 1013 10 16 0.00 0.00
8:53 am 08:53 Sunny 76 24.4 65 18.3 69 69 E 9 15 29.88 1012 10 16 0.00 0.00
9:53 am 09:53 Sunny 79 26.1 67 19.4 67 67 E 10 17 29.90 1012 10 16 0.00 0.00
10:53 am 10:53 Sunny 82 27.8 67 19.4 60 60 SSE 9 15 29.90 1013 10 16 0.00 0.00
11:53 am 11:53 Sunny 84 28.9 63 17.2 49 49 VRB 7 11 29.90 1013 10 16 0.00 0.00
12:53 pm 12:53 Mostly Sunny 87 30.6 63 17.2 45 45 SE 13 20 29.87 1012 10 16 0.00 0.00
1:29 pm 13:29 Sunny with Nearby Thunderstorms 88 31.1 62 16.7 42 42 SSE 10 17 29.80 1009 10 16 0.00 0.00
1:53 pm 13:53 Mostly Cloudy 81 27.2 59 15 47 47 W 25 41 29.89 1012 10 16 0.00 0.00
2:05 pm 14:05 Mostly Cloudy with Nearby Thunderstorms 74 23.3 61 16.1 64 64 NNW 22 35 29.88 1012 10 16 0.00 0.00
2:26 pm 14:26 Cloudy with Light Rain 71 21.7 65 18.3 81 81 NNW 29 46 29.91 1013 10 16 0.00 0.03
2:53 pm 14:53 Cloudy with Nearby Thunderstorms 69 20.6 62 16.7 78 78 N 24 39 29.96 1015 8 13 0.02 0.51
3:11 pm 15:11 Cloudy with Light Rain 69 20.6 63 17.2 81 81 WNW 16 26 29.97 1015 10 16 0.00 0.03
3:17 pm 15:17 Mostly Cloudy with Nearby Thunderstorms 68 20 64 17.8 87 87 WNW 18 30 29.97 1015 10 16 0.00 0.03
3:48 pm 15:48 Cloudy with Thunderstorms 70 21 63 17 78 78 WSW 13 20 30.00 1016 10 16 0.00 0.00
3:53 pm 15:53 Cloudy with Thunderstorms 69 20.6 62 16.7 78 78 W 12 19 30.01 1016 2 3 0.16 4.06
4:04 pm 16:04 Cloudy with Nearby Thunderstorms 66 19 63 17 88 88 NNW 5 7 29.97 1015 3 4 0.00 0.00
4:11 pm 16:11 Cloudy with Nearby Thunderstorms 68 20 64 17.8 87 87 NNE 15 24 29.97 1015 10 16 0.07 1.78
4:42 pm 16:42 Cloudy 70 21 64 18 83 83 N 13 20 29.94 1014 10 16 0.00 0.00
4:53 pm 16:53 Cloudy 69 20.6 64 17.8 84 84 N 12 19 29.96 1015 10 16 0.07 1.78
5:53 pm 17:53 Cloudy 72 22.2 64 17.8 76 76 NNE 7 11 29.96 1015 10 16 0.00 0.00
6:53 pm 18:53 Mostly Cloudy 71 21.7 66 18.9 84 84 WNW 5 7 29.92 1013 10 16 0.00 0.03
7:53 pm 19:53 Sunny 70 21.1 60 15.6 71 71 Calm 29.87 1012 10 16 0.00 0.00
8:36 pm 20:36 Cloudy with Thunderstorms 70 21.1 57 13.9 64 64 S 8 13 29.88 1012 10 16 0.00 0.00
8:53 pm 20:53 Cloudy with Rain 67 19.4 59 15 76 76 SW 8 13 29.90 1013 5 8 0.04 1.02
9:44 pm 21:44 Cloudy with Nearby Thunderstorms 70 21 55 13 60 60 W 26 43 29.88 1012 10 16 0.00 0.00
9:53 pm 21:53 Cloudy with Light Rain 68 20 56 13.3 65 65 W 28 44 29.89 1012 10 16 0.01 0.25
10:53 pm 22:53 Mostly Cloudy with Light Rain 67 19.4 57 13.9 71 71 W 17 28 29.88 1012 10 16 0.05 1.27
11:01 pm 23:01 Mostly Cloudy with Light Rain 67 19.4 57 13.9 71 71 W 18 30 29.88 1012 10 16 0.00 0.03
11:53 pm 23:53 Mostly Clear 66 18.9 57 13.9 73 73 W 20 31 29.88 1012 10 16 0.00 0.03

Powered by AerisWeather